CARTOSAT-2C

Last updated on Mon Oct 14 2024 00:02:24 GMT+0000 (Coordinated Universal Time)

1 41599U 16040A 24287.51403609 .00011921 00000+0 56685-3 0 9996 2 41599 97.4604 345.2446 0012546 105.2069 255.0554 15.19272824460848
UTC large
Height (km)
Speed (km/s)
/
Latitude / Longitude
Inclination (degrees)
Orbital Period (minutes)
Azimuth
Elevation
Range (km)
Doppler Factor

Next 0 passes for location: London (51.5072 / 0.1276)

Sorry there are no passes over London.